THORAD AGENA D DEB, 42531

Orbit data source: Space-Track

THORAD AGENA D DEB, 42531 is space debris in SSO originally from a launch on Wed, 08 Apr 1970 UTC launched from the Air Force Western Test Range (AFWTR). Debris objects in space refer to the collection of defunct objects orbiting the Earth. Examples of debris include non-operational satellites, rocket bodies, and fragments generated from explosions, collisions, or faulty payload assembly.

Loading next visibility...
Identifier
42531, 1970-025SM
Orbit
SSO
Country
Flag of USUS
Related business
Manufacturer
Unknown
Mission
Spacecraft
Bus & Motor
Unknown
Mass
Unknown
Launch date (UTC)
1970-04-08 (56 years ago)
Launch vehicle
Unknown
Launch site
Air Force Western Test Range (AFWTR)
Object type
Payload
Rocket body
Debris
Shape & HBR
Unknown shape, 0.1 m
Radar Cross Section
Small (<0.1 m²)

Expand to show TLE details & history
Last TLE update: 3 days ago

TLE from 3 days ago
0 THORAD AGENA D DEB
1 42531U 70025SM  26170.55700659  .00000199  00000-0  37738-3 0  9992
2 42531  99.7925 286.2210 0051421 273.2692  98.2292 13.50341383619136
Epoch: 2026-06-19T13:22Z
TLE epoch observation values (Epoch: 2026-06-19T13:22:05.369Z)
Latitude
11.8612°
Longitude
175.84763°
Altitude
1,078.706 km
Speed
7.311 km/s
True Right ascension
18h 56m 37s
True Declination
11° 47' 43"
Sunlit
Object was in full shadow at epoch
Visualization orbit readout
Latitude
Unknown
Longitude
Unknown
Altitude
Unknown
Speed
Unknown
Apparent Right ascension
Unknown
Apparent Declination
Unknown
Sunlit
N/A
Visualization observer readout
Local Sidereal Time
21:40:20
Azimuth
Unknown
Elevation
Unknown
Doppler factor
Unknown
Orbital elements
Apogee altitude
1,106.599 km
Perigee altitude
1,030.018 km
Semi-major axis
7,446.445 km
Eccentricity
0.00514
Inclination
99.7925°
RAAN
286.221°
Arg. of periapsis
273.2692°
True anomaly
98.81183°
Mean anomaly
98.2292°
Eccentric anomaly
98.52057°
Mean motion
3.37769 °/min
Orbital period
106.58 mins
BSTAR
0.00037738
Loading maneuver chart data...
Computing Atmospheric mass density...

Documentation

Showing up to 5 results
|